• Join FlightAware (Why Join?)
  • Login
  • US Flag 
Rudolph Flight #1: Arrived! 
09:49PM EST


 

Airport Tracker/Info


-or-


 

Live Flight TrackerFlight Track Log ✈ SWA554 ✈ 11-Apr-2013 ✈ KBWI - KMHT

Flight Track Log - Related Links

Times and Time Zones

All times are in EDT time to prevent confusion due to time zone crossing. See the SWA554 flight status page for this flight to view local times or setup timezone preferences in your user account.

Time Position Orientation Groundspeed Altitude Reporting Facility
EDT Latitude Longitude Course Direction KTS MPH feet Rate Location/Type
05:14PM 39.1333 -76.6333 90° East 171 197 2,200  Level Potomac TRACON
05:16PM 39.1183 -76.5144 99° East 242 278 5,900 2,700 Climbing Washington Center
05:17PM 39.1317 -76.4050 81° East 270 311 9,400 3,120 Climbing Washington Center
05:18PM 39.1447 -76.2847 82° East 314 361 12,200 2,820 Climbing Washington Center
05:19PM 39.1622 -76.1592 80° East 363 418 15,100 2,880 Climbing Washington Center
05:20PM 39.1667 -76.6058 90° East  Level FlightAware Approximate
05:20PM 39.1772 -76.0172 82° East 390 449 18,000  Level Washington Center
05:21PM 39.2028 -75.8756 77° East 401 461 20,900 2,640 Climbing Washington Center
05:22PM 39.2842 -75.7631 47° Northeast 392 451 23,300 2,460 Climbing Washington Center
05:23PM 39.3697 -75.6533 45° Northeast 413 475 25,900 2,280 Climbing Washington Center
05:24PM 39.4553 -75.5431 45° Northeast 418 481 27,900 1,740 Climbing Washington Center
05:25PM 39.5447 -75.4247 46° Northeast 433 498 29,400 1,560 Climbing Washington Center
05:27PM 39.6914 -75.2303 46° Northeast 460 529 32,200 1,500 Climbing New York Center
05:28PM 39.7778 -75.1008 49° Northeast 473 544 33,500 1,260 Climbing New York Center
05:29PM 39.8700 -74.9714 47° Northeast 481 554 34,700 1,620 Climbing New York Center
05:30PM 39.9708 -74.8256 48° Northeast 486 559 36,800 1,620 Climbing New York Center
05:31PM 40.0703 -74.7256 38° Northeast 467 537 38,000 1,080 Climbing New York Center
05:32PM 40.1903 -74.6889 13° North 435 501 39,000 480 Climbing New York Center
05:33PM 40.3106 -74.6442 16° North 435 501 39,000  Level New York Center
05:34PM 40.4306 -74.6044 14° North 442 509 39,000 -60 Level New York Center
05:36PM 40.7142 -74.5075 15° North 435 501 38,900 -60 Descending Boston Center
05:37PM 40.8317 -74.4644 15° North 435 501 38,900  Level Boston Center
05:38PM 40.9511 -74.4269 13° North 435 501 38,900  Level Boston Center
05:40PM 41.0853 -74.3869 13° North 435 501 38,900  Level Boston Center
05:40PM 41.2236 -74.3417 14° North 434 499 38,900  Level Boston Center
05:41PM 41.3306 -74.3006 16° North 434 499 39,000  Climbing Boston Center
05:43PM 41.4478 -74.2597 15° North 434 499 39,000 -60 Level Boston Center
05:44PM 41.5819 -74.2164 14° North 434 499 38,900 -420 Descending Boston Center
05:44PM 41.6994 -74.1750 15° North 434 499 38,200 -1,800 Descending Boston Center
05:45PM 41.8103 -74.1419 13° North 422 486 35,500 -2,400 Descending Boston Center
05:47PM 41.9528 -74.0900 15° North 422 486 33,000 -1,620 Descending Boston Center
05:48PM 42.0764 -74.0483 14° North 434 499 32,000 -1,500 Descending Boston Center
05:49PM 42.1981 -74.0011 16° North 444 511 30,000 -1,980 Descending Boston Center
05:50PM 42.3236 -73.9592 14° North 454 522 28,100 -1,920 Descending Boston Center
05:51PM 42.4331 -73.8664 32° Northeast 454 522 26,200 -1,080 Descending Boston Center
05:52PM 42.4769 -73.6900 71° East 440 506 26,000 -120 Descending Boston Center
05:53PM 42.5203 -73.5161 71° East 451 519 26,000 -600 Level Boston Center
05:54PM 42.5617 -73.3336 73° East 466 536 24,900 -1,740 Descending Boston Center
05:55PM 42.6003 -73.1594 73° East 502 578 22,600 -2,220 Descending Boston Center
05:56PM 42.6367 -73.0158 71° East 471 542 20,600 -2,040 Descending Boston Center
05:57PM 42.6706 -72.8522 74° East 453 521 18,600 -1,860 Descending Boston Center
05:58PM 42.6961 -72.6972 77° East 428 493 16,900 -1,860 Descending Boston Center
05:59PM 42.7214 -72.5447 77° East 415 478 14,900 -1,920 Descending Boston Center
06:00PM 42.7464 -72.3919 77° East 410 472 13,000 -2,040 Descending Boston Center
06:01PM 42.7711 -72.2308 78° East 410 472 11,000 -1,260 Descending Boston Center
06:02PM 42.7939 -72.0922 77° East 393 452 10,300 -1,140 Descending Boston Center
06:03PM 42.7931 -71.9364 90° East 349 402 8,600 -1,380 Descending Boston Center
06:04PM 42.7883 -71.8206 93° East 343 395 7,600 -1,200 Descending Boston Center
06:05PM 42.7856 -71.7017 92° East 308 354 6,300 -1,440 Descending Boston Center
06:06PM 42.7808 -71.6056 94° East 279 321 4,800 -1,320 Descending Boston Center
06:07PM 42.7864 -71.5008 86° East 259 298 3,700 -1,020 Descending Boston Center
06:08PM 42.7981 -71.4300 77° East 223 257 2,800 -720 Descending Boston Center
06:09PM 42.8394 -71.3867 38° Northeast 160 184 2,300 -780 Descending Boston Center
06:10PM 42.8708 -71.3975 346° North 135 155 1,300 -900 Descending Boston Center
06:11PM 42.9044 -71.4197 334° Northwest 128 147 600 -480 Descending Boston Center
06:12PM 42.9378 -71.4361 340° North 128 147 400 4,260 Descending Boston Center
06:13PM 42.9692 -71.4583 333° Northwest 128 147 9,000 4,260 Climbing Boston Center
06:14PM 43.0008 -71.4778 336° Northwest 128 147 9,000  Level Boston Center
06:15PM 43.0322 -71.5000 333° Northwest 128 147 9,000  Level Boston Center
06:17PM 42.9328 -71.4358 166° South  Level Estimated
06:24PM 42.9328 -71.4358 166° South  Level Estimated
06:25PM 42.9328 -71.4358 166° South  Level Estimated
06:26PM 42.9328 -71.4358 166° South  Level Estimated
06:27PM 42.9328 -71.4358 166° South  Level Estimated
06:28PM 42.9328 -71.4358 166° South  Level Estimated